FW2347 Weather Reports


Display with metric or nautical units.
time (UTC)temp
F
wind
direction
speed
MPH
gust
MPH
rain 1hr
in
rain 24hr
in
rain mn
in
humidity
%
barometer
mb
20260508211510 50 222 0.0 0.0 0.00 0.00 0.00 50 1014.7
20260508210019 50 222 0.0 0.0 0.00 0.00 0.00 53 1014.6
20260508204512 50 222 0.0 0.0 0.00 0.00 0.00 57 1014.3
20260508203012 51 222 0.0 0.0 0.00 0.00 0.00 60 1014.2
20260508201518 51 223 0.0 0.0 0.00 0.00 0.00 65 1014.0
20260508200043 52 223 0.0 0.0 0.00 0.00 0.00 69 1013.9
20260508194534 53 223 0.0 0.0 0.00 0.00 0.00 71 1013.6
20260508193107 55 223 0.0 0.0 0.00 0.00 0.00 73 1013.4
20260508191607 57 223 0.0 0.0 0.00 0.00 0.00 73 1013.2
20260508190107 58 223 0.0 0.0 0.00 0.00 0.00 72 1012.9
20260508184602 59 242 0.0 0.0 0.00 0.00 0.00 72 1012.8
20260508183103 60 259 0.0 0.0 0.00 0.00 0.00 71 1012.8
20260508181614 60 265 0.0 0.0 0.00 0.00 0.00 71 1012.5
20260508180002 61 261 0.0 0.0 0.00 0.00 0.00 70 1012.4
20260508174600 61 232 0.0 0.0 0.00 0.00 0.00 69 1012.5
20260508173018 62 196 0.0 0.0 0.00 0.00 0.00 68 1012.1
20260508171537 63 257 0.0 0.0 0.00 0.00 0.00 67 1012.0
20260508170039 63 254 0.0 0.0 0.00 0.00 0.00 65 1011.8
20260508164606 63 270 0.0 0.0 0.00 0.00 0.00 64 1011.7
20260508163017 64 234 0.0 0.0 0.00 0.00 0.00 60 1011.6
20260508161540 65 225 0.0 0.0 0.00 0.00 0.00 61 1011.7
20260508160036 65 290 0.0 0.0 0.00 0.00 0.00 61 1011.9
20260508154543 65 272 0.0 0.0 0.00 0.00 0.00 60 1011.8
20260508153058 65 231 0.0 0.0 0.00 0.00 0.00 59 1011.8
20260508151549 66 234 0.0 0.0 0.00 0.00 0.00 59 1011.9
20260508150126 66 300 0.0 0.0 0.00 0.00 0.00 59 1011.8
20260508144521 65 234 0.0 0.0 0.00 0.00 0.00 60 1011.9
20260508143027 64 360 0.0 0.0 0.00 0.00 0.00 61 1012.1
20260508141533 63 281 0.0 0.0 0.00 0.00 0.00 63 1012.7
20260508140056 62 355 0.0 0.0 0.00 0.00 0.00 64 1012.9
20260508134609 62 311 0.0 0.0 0.00 0.00 0.00 63 1013.1
20260508133109 63 269 0.0 0.0 0.00 0.00 0.00 62 1013.0
20260508131520 64 263 0.0 0.0 0.00 0.00 0.00 59 1012.6
20260508130036 66 360 0.0 0.0 0.00 0.00 0.00 55 1012.5
20260508124548 66 328 0.0 0.0 0.00 0.00 0.00 56 1012.6
20260508123107 65 277 0.0 0.0 0.00 0.00 0.00 58 1012.5
20260508121519 64 192 0.0 0.0 0.00 0.00 0.00 55 1012.5
20260508120032 64 261 0.0 0.0 0.00 0.00 0.00 58 1012.6
20260508114527 64 275 0.0 0.0 0.00 0.00 0.00 59 1012.8
20260508113044 64 285 0.0 0.0 0.00 0.00 0.00 59 1012.6
20260508111534 64 228 0.0 0.0 0.00 0.00 0.00 60 1012.5
20260508110104 64 315 0.0 0.0 0.00 0.00 0.00 58 1012.8
20260508104607 63 276 0.0 0.0 0.00 0.00 0.00 60 1013.0
20260508103004 64 226 0.0 0.0 0.00 0.00 0.00 59 1013.1
20260508101536 64 217 0.0 0.0 0.00 0.00 0.00 58 1013.1
20260508100042 65 275 0.0 0.0 0.00 0.00 0.00 59 1013.3
20260508094601 63 267 0.0 0.0 0.00 0.00 0.00 61 1013.4
20260508093028 63 278 0.0 0.0 0.00 0.00 0.00 64 1013.2
20260508091550 62 272 0.0 0.0 0.00 0.00 0.00 65 1012.9
20260508090049 62 271 0.0 0.0 0.00 0.00 0.00 68 1012.8
20260508084609 61 267 0.0 0.0 0.00 0.00 0.00 69 1012.6
20260508083009 61 279 0.0 0.0 0.00 0.00 0.00 70 1012.4
20260508081538 60 232 0.0 0.0 0.00 0.00 0.00 69 1012.4
20260508080059 61 217 0.0 0.0 0.00 0.00 0.00 71 1012.4
20260508074516 59 198 0.0 0.0 0.00 0.00 0.00 72 1012.5
20260508073026 58 92 0.0 0.0 0.00 0.00 0.00 71 1012.5
20260508071526 56 76 0.0 0.0 0.00 0.00 0.00 70 1012.4
20260508070038 55 71 0.0 0.0 0.00 0.00 0.00 65 1012.5
20260508064609 54 71 0.0 0.0 0.00 0.00 0.00 56 1012.6
20260508063007 51 71 0.0 0.0 0.00 0.00 0.00 27 1012.6
20260508061524 50 71 0.0 0.0 0.00 0.00 0.00 17 1012.6
20260508060039 47 71 0.0 0.0 0.00 0.00 0.00 14 1012.4
20260508054627 44 72 0.0 0.0 0.00 0.00 0.00 16 1012.4
20260508053052 41 71 0.0 0.0 0.00 0.00 0.00 19 1012.2
20260508051505 41 71 0.0 0.0 0.00 0.00 0.00 19 1012.1
20260508050018 40 71 0.0 0.0 0.00 0.00 0.00 21 1012.0
20260508044515 40 71 0.0 0.0 0.00 0.00 0.00 22 1011.9
20260508043040 41 71 0.0 0.0 0.00 0.00 0.00 23 1011.7
20260508041544 41 71 0.0 0.0 0.00 0.00 0.00 24 1011.7
20260508040108 42 71 0.0 0.0 0.00 0.00 0.00 24 1011.7
20260508034519 42 71 0.0 0.0 0.00 0.00 0.00 26 1011.6
20260508033019 42 71 0.0 0.0 0.00 0.00 0.00 28 1011.6
20260508031526 43 71 0.0 0.0 0.00 0.00 0.00 28 1011.6
20260508030028 42 70 0.0 0.0 0.00 0.00 0.00 32 1011.7
20260508024545 42 70 0.0 0.0 0.00 0.00 0.00 35 1012.0
20260508023101 43 70 0.0 0.0 0.00 0.00 0.00 36 1012.0
20260508021607 44 70 0.0 0.0 0.00 0.00 0.00 39 1011.9
20260508020013 44 69 0.0 0.0 0.00 0.00 0.00 43 1011.9
20260508014533 45 69 0.0 0.0 0.00 0.00 0.00 47 1012.0
20260508013046 46 70 0.0 0.0 0.00 0.00 0.00 50 1012.0
20260508011550 47 70 0.0 0.0 0.00 0.00 0.00 51 1012.1
20260508010051 48 70 0.0 0.0 0.00 0.00 0.00 52 1012.2
20260508004505 47 70 0.0 0.0 0.00 0.00 0.00 56 1012.2
20260508003024 47 69 0.0 0.0 0.00 0.00 0.00 59 1012.4
20260508001544 48 70 0.0 0.0 0.00 0.00 0.00 63 1012.4
20260508000111 48 69 0.0 0.0 0.00 0.00 0.00 66 1012.5
20260507234530 48 70 0.0 0.0 0.00 0.00 0.00 67 1012.7
20260507233024 49 69 0.0 0.0 0.00 0.00 0.00 69 1012.9
20260507231559 49 69 0.0 0.0 0.00 0.00 0.00 69 1012.9
20260507230109 49 70 0.0 0.0 0.00 0.00 0.00 65 1013.1
20260507224524 48 69 0.0 0.0 0.00 0.00 0.00 66 1013.2
20260507223026 48 70 0.0 0.0 0.00 0.00 0.00 69 1013.3
20260507221543 49 70 0.0 0.0 0.00 0.00 0.00 71 1013.2
20260507220106 50 69 0.0 0.0 0.00 0.00 0.00 73 1013.2
20260507214526 51 69 0.0 0.0 0.00 0.00 0.00 73 1013.0
20260507213026 51 70 0.0 0.0 0.00 0.00 0.00 73 1013.1
20260507211543 52 69 0.0 0.0 0.00 0.00 0.00 74 1013.1